Zurück zum Katalog

COSMOS 651 DEB

LostLEO
NORAD 44566·DEBRIS·🇷🇺 Russia

Gestartet May 15, 1974 von Baikonur Cosmodrome

Loading…

Nächste Überflüge (nächste 24 Stunden)

TLE

VeraltetSource: Space-Track

Epoche: Jun 16, 2020, 18:10 UTC

1 44566U 74029E   20168.75710572  .00001446  00000-0  10836-2 0  9993
2 44566  64.9700 308.6986 0021745  32.9772 327.2646 13.97800911146709

Verfolge COSMOS 651 DEB in Echtzeit mit AllMySat

Download on the App Store